STARLINK-35538

Last updated on Tue Dec 16 2025 00:02:05 GMT+0000 (Coordinated Universal Time)

1 66475U 25262V 25349.33335648 -.00003984 00000+0 -88161-4 0 9996 2 66475 43.0011 56.0926 0000791 264.0722 126.0093 15.40702029 6059
UTC large
Height (km)
Speed (km/s)
/
Latitude / Longitude
Inclination (degrees)
Orbital Period (minutes)
Azimuth
Elevation
Range (km)
Doppler Factor

Next 0 passes for location: London (51.5072 / 0.1276)

Sorry there are no passes over London.